FLOCK 4S-35 (47473 NORAD) Tracking and Keplerian Element Data
This shows tracking and keplerian element data for the satellite.
Feedback or suggestion? Click here.
Element | Value |
Catalog | 47473 |
Name | FLOCK 4S-35 |
Epoch Orbit | 1198 |
Epoch Day | 101.911912 |
Epoch Year | 2021 |
RAAN | 164.2457 |
Inclination | 97.5007 |
Eccentricity | 0.0007455 |
Argument of Perigee | 354.0655 |
Mean Anonmoly | 6.0486 |
Mean Motion | 15.11885842 |
Decay Rate | 2.365E-05 |
L1 | 1 47473U 21006BN 21101.91191200 .00002365 00000-0 14190-3 0 9996 |
L2 | 2 47473 97.5007 164.2457 0007455 354.0655 6.0486 15.11885842 11989 |
Live tracking and technical data element details for FLOCK 4S-35 (NORAD 47473). FLOCK 4S-35 can be tracked NOW for your location showing map with azimuth and elevation plus other details from your city location.
Track the satellite on the map from your city or location and see movement details for azimuth, elevation, latitude, longitude, range, height, and movement on the map or in text.
IsCatalogInMostPopularTable: catalog: 47473, numindb: 13
Update: records affected: 1
GetName: 47473 FLOCK 4S-35
Hit Count: updated at: Tue, 13 Apr 2021 04:08:48 GMT